{"data":{"norad_id":55373,"intl_designator":"2023-013AU","name":"STARLINK-5581","alt_names":[],"object_type":"PAYLOAD","status":"ACTIVE","operator":null,"country":"US","launch_date":"2023-01-26","launch_site_code":"AFETR","launch_vehicle":null,"mission":null,"orbit_class":"UNKNOWN","rcs_meters":null,"size_class":null,"mass_kg":null,"dimensions":null,"purposes":["comms"],"wikipedia_slug":null,"has_3d_model":false,"image_url":null,"decayed_at":null,"tle_current":{"epoch":"2026-05-24T18:18:17.097696Z","epoch_age_seconds":89581,"freshness":"FRESH","line1":"1 55373U 23013AU  26144.76269789  .00000393  00000+0  23819-4 0  9994","line2":"2 55373  43.0028 252.2401 0001984 279.6834  80.3794 15.27576848183094","mean_motion":15.27576848,"eccentricity":0.0001984,"inclination_deg":43.0028,"raan_deg":252.2401,"arg_perigee_deg":279.6834,"mean_anomaly_deg":80.3794,"bstar":2.3819e-5,"rev_number":18309,"period_min":94.266943223533,"perigee_km":481.69727308381,"apogee_km":484.41979547181,"semimajor_km":6861.1955342778,"source":"CELESTRAK","updated_at":"2026-05-25T13:38:17.768684Z"}}}